Location: Wildcat Hills Observatory
(41.6350°N, 103.6812°W)
Time: 14:48:55
(UTC-06:00)

Cosmos 1634 Rocket - Visible Passes

Search period start: 18 April 2015 00:00
Search period end: 28 April 2015 00:00
Orbit: 960 x 993 km, 82.9° (Epoch: 17 April)

Date Brightness Start Highest point End Pass type
(mag) Time Alt. Az. Time Alt. Az. Time Alt. Az.
18 Apr 4.5 20:05:29 10° N 20:11:11 38° ENE 20:16:53 10° SE visible
18 Apr 5.6 21:51:06 10° NNW 21:56:30 32° W 22:01:46 10° SSW visible
19 Apr 4.0 20:30:48 10° N 20:36:58 69° E 20:43:06 10° SSE visible
19 Apr 6.4 22:17:50 10° NW 22:21:48 17° W 22:25:27 10° WSW visible
20 Apr 4.3 20:56:26 10° NNW 21:02:34 67° W 21:08:39 10° S visible
21 Apr 5.4 21:22:25 10° NNW 21:28:01 36° W 21:33:31 10° SSW visible
22 Apr 4.1 20:02:18 10° N 20:08:24 60° E 20:14:29 10° SSE visible
22 Apr 6.3 21:48:56 10° NW 21:53:20 20° W 21:57:30 10° SW visible
23 Apr 4.2 20:27:51 10° N 20:34:03 77° W 20:40:11 10° S visible
24 Apr 5.2 20:53:45 10° NNW 20:59:31 42° W 21:05:13 10° SSW visible
25 Apr 6.2 21:20:06 10° NW 21:24:53 23° W 21:29:28 10° SW visible
26 Apr 6.8 21:47:40 10° WNW 21:50:06 12° W 21:52:07 10° W visible
27 Apr 5.0 20:25:06 10° NNW 20:31:01 49° W 20:36:53 10° SSW visible
